Flag for U.S.A. Weather past 2 weeks in Minot, North Dakota, U.S.A.

Now
66 °F

Fog.


Feels Like: 66 °F
Forecast: 62 / 76 °F
Wind: 3 mph from Northeast

Location: Minot International Airport

Current Time: Jul 1, 2015 at 12:35:11 AM

Latest Report: Jun 30, 2015 at 10:54 PM


Visibility: 2 mi

Pressure: 29.88 "Hg

Humidity: 93%

Dew point: 64 °F

Location of MinotLocation

Historic Weather in Minot — Graph

°F

Minot temperature yesterday

Maximum temperature yesterday: 72 °F (at 1:54 PM)
Minimum temperature yesterday: 64 °F (at 5:54 AM)
Average temperature yesterday: 67 °F

Past Weeks' High & Low Weather Summary

 TemperatureHumidityPressure
High89 °F (Jun 29, 4:54 PM)100% (Jun 20, 3:54 AM)30.24 "Hg (Jun 20, 3:54 AM)
Low45 °F (Jun 16, 3:54 AM)31% (Jun 23, 3:54 PM)29.69 "Hg (Jun 21, 8:54 PM)
Average67 °F67%29.96 "Hg
* Reported Jun 15 10:54 PM — Jun 30 10:54 PM, Minot, Weather by CustomWeather, © 2015

Note: Actual official high and low records may vary slightly from our data, if they occured in-between our weather recording intervals... More about our weather records

Advertising

Minot weather history for previous 24 hours

 ConditionsComfort  
Time TempWeatherWind HumidityBarometerVisibility
10:54 PM
Tue, Jun 30
66 °FFog.3 mph93%29.88 "Hg2 mi
10:02 PM67 °FFog.No wind90%29.89 "Hg3 mi
9:54 PM66 °FFog.No wind93%29.89 "Hg3 mi
8:54 PM68 °FFog.No wind87%29.91 "Hg2 mi
7:54 PM67 °FFog.No wind87%29.90 "Hg2 mi
6:54 PM69 °FCloudy.No wind84%29.88 "Hg3 mi
5:54 PM69 °FPartly sunny.No wind84%29.89 "Hg3 mi
4:54 PM68 °FMostly cloudy.No wind84%29.90 "Hg1 mi
4:01 PM69 °FMore clouds than sun.3 mph81%29.90 "Hg3 mi
3:01 PM69 °FFog.8 mph87%29.92 "Hg3 mi
1:54 PM72 °FSunny.3 mph73%29.88 "Hg4 mi
1:02 PM69 °FBroken clouds.No wind81%29.91 "Hg6 mi
12:54 PM69 °FPartly sunny.No wind81%29.90 "Hg6 mi
11:54 AM67 °FFog.3 mph87%29.91 "Hg5 mi
10:54 AM65 °FFog.6 mph91%29.92 "Hg4 mi
9:54 AM65 °FFog.No wind91%29.92 "Hg4 mi
8:54 AM64 °FFog.10 mph90%29.90 "Hg5 mi
7:54 AM64 °FFog.7 mph90%29.92 "Hg3 mi
6:54 AM64 °FFog.8 mph90%29.90 "Hg6 mi
5:54 AM64 °FPassing clouds.8 mph90%29.90 "Hg7 mi
4:54 AM65 °FClear.6 mph87%29.90 "Hg8 mi
3:54 AM65 °FPassing clouds.6 mph87%29.92 "Hg8 mi
2:54 AM67 °FOvercast.7 mph85%29.91 "Hg7 mi
1:54 AM68 °FOvercast.7 mph84%29.90 "Hg7 mi
12:54 AM70 °FPassing clouds.8 mph76%29.93 "Hg8 mi
Weather by CustomWeather, © 2015

See weather overviewHow to use our weather pages